| time (UTC) | temp C | wind direction | speed KPH | gust KPH | rain 1hr cm | rain 24hr cm | rain mn cm | humidity % | barometer mb |
| 20260507202411 | 10 | 59 | 6.4 | 14.5 | 0.00 | 0.13 | 0.13 | 67 | 1016.2 |
| 20260507201412 | 10 | 46 | 6.4 | 9.7 | 0.00 | 0.13 | 0.13 | 67 | 1016.2 |
| 20260507200412 | 10 | 64 | 6.4 | 9.7 | 0.00 | 0.13 | 0.13 | 67 | 1016.2 |
| 20260507195410 | 10 | 36 | 6.4 | 8.0 | 0.00 | 0.13 | 0.13 | 67 | 1016.2 |
| 20260507194411 | 11 | 62 | 6.4 | 8.0 | 0.00 | 0.13 | 0.13 | 66 | 1016.0 |
| 20260507193409 | 11 | 59 | 4.8 | 9.7 | 0.00 | 0.13 | 0.13 | 66 | 1015.8 |
| 20260507192411 | 11 | 62 | 6.4 | 8.0 | 0.00 | 0.13 | 0.13 | 66 | 1015.7 |
| 20260507191407 | 11 | 63 | 6.4 | 8.0 | 0.00 | 0.13 | 0.13 | 65 | 1015.8 |
| 20260507185410 | 12 | 72 | 4.8 | 8.0 | 0.00 | 0.13 | 0.13 | 64 | 1015.6 |
| 20260507184408 | 12 | 59 | 4.8 | 8.0 | 0.00 | 0.13 | 0.13 | 64 | 1015.5 |
| 20260507183410 | 12 | 21 | 4.8 | 9.7 | 0.00 | 0.13 | 0.13 | 63 | 1015.5 |
| 20260507182409 | 12 | 43 | 4.8 | 8.0 | 0.00 | 0.13 | 0.13 | 63 | 1015.5 |
| 20260507180407 | 13 | 37 | 6.4 | 9.7 | 0.00 | 0.13 | 0.13 | 59 | 1015.4 |
| 20260507175403 | 13 | 18 | 8.0 | 12.9 | 0.00 | 0.13 | 0.13 | 59 | 1015.3 |
| 20260507173404 | 13 | 13 | 8.0 | 14.5 | 0.00 | 0.13 | 0.13 | 58 | 1015.2 |
| 20260507171403 | 14 | 355 | 6.4 | 14.5 | 0.00 | 0.13 | 0.13 | 54 | 1015.2 |
| 20260507165403 | 15 | 355 | 6.4 | 14.5 | 0.00 | 0.13 | 0.13 | 50 | 1015.0 |
| 20260507164402 | 15 | 293 | 4.8 | 12.9 | 0.00 | 0.13 | 0.13 | 48 | 1014.9 |
| 20260507163402 | 15 | 298 | 8.0 | 16.1 | 0.00 | 0.13 | 0.13 | 49 | 1015.1 |
| 20260507162403 | 15 | 310 | 4.8 | 16.1 | 0.00 | 0.13 | 0.13 | 49 | 1015.0 |
| 20260507161402 | 15 | 293 | 6.4 | 12.9 | 0.00 | 0.13 | 0.13 | 50 | 1015.0 |
| 20260507155402 | 15 | 313 | 11.3 | 20.9 | 0.00 | 0.13 | 0.13 | 46 | 1015.0 |
| 20260507153401 | 15 | 31 | 8.0 | 14.5 | 0.00 | 0.13 | 0.13 | 52 | 1015.1 |
| 20260507151355 | 15 | 30 | 9.7 | 16.1 | 0.00 | 0.13 | 0.13 | 50 | 1015.0 |
| 20260507150356 | 15 | 335 | 8.0 | 14.5 | 0.00 | 0.13 | 0.13 | 50 | 1015.1 |
| 20260507144351 | 15 | 32 | 3.2 | 8.0 | 0.00 | 0.13 | 0.13 | 56 | 1015.3 |
| 20260507135351 | 15 | 41 | 4.8 | 9.7 | 0.00 | 0.13 | 0.13 | 57 | 1015.3 |
| 20260507134352 | 14 | 331 | 12.9 | 19.3 | 0.00 | 0.13 | 0.13 | 58 | 1015.4 |
| 20260507131351 | 15 | 346 | 11.3 | 19.3 | 0.00 | 0.13 | 0.13 | 56 | 1015.5 |
| 20260507130351 | 15 | 265 | 11.3 | 17.7 | 0.00 | 0.13 | 0.13 | 56 | 1015.5 |
| 20260507125352 | 15 | 299 | 12.9 | 22.5 | 0.00 | 0.13 | 0.13 | 61 | 1015.4 |
| 20260507124352 | 15 | 300 | 8.0 | 16.1 | 0.00 | 0.13 | 0.13 | 61 | 1015.5 |
| 20260507123351 | 15 | 258 | 8.0 | 14.5 | 0.00 | 0.13 | 0.13 | 54 | 1015.5 |
| 20260507122349 | 15 | 308 | 12.9 | 20.9 | 0.00 | 0.13 | 0.13 | 59 | 1015.5 |
| 20260507121347 | 15 | 310 | 8.0 | 22.5 | 0.00 | 0.13 | 0.13 | 60 | 1015.5 |
| 20260507120346 | 14 | 355 | 4.8 | 12.9 | 0.00 | 0.13 | 0.13 | 64 | 1015.5 |
| 20260507115347 | 14 | 348 | 12.9 | 22.5 | 0.00 | 0.13 | 0.13 | 61 | 1015.6 |
| 20260507114347 | 14 | 325 | 8.0 | 17.7 | 0.00 | 0.13 | 0.13 | 65 | 1015.6 |
| 20260507113347 | 14 | 326 | 11.3 | 20.9 | 0.00 | 0.13 | 0.13 | 61 | 1015.6 |
| 20260507112345 | 14 | 309 | 9.7 | 16.1 | 0.00 | 0.13 | 0.13 | 61 | 1015.6 |
| 20260507111353 | 14 | 315 | 11.3 | 24.1 | 0.00 | 0.13 | 0.13 | 65 | 1015.6 |
| 20260507110345 | 14 | 218 | 8.0 | 16.1 | 0.00 | 0.15 | 0.13 | 64 | 1015.7 |
| 20260507105345 | 13 | 288 | 4.8 | 16.1 | 0.00 | 0.18 | 0.13 | 65 | 1015.7 |
| 20260507104347 | 13 | 313 | 4.8 | 11.3 | 0.00 | 0.18 | 0.13 | 67 | 1015.8 |
| 20260507103345 | 13 | 202 | 6.4 | 14.5 | 0.00 | 0.20 | 0.13 | 69 | 1016.0 |
| 20260507102346 | 13 | 229 | 8.0 | 19.3 | 0.00 | 0.23 | 0.13 | 65 | 1016.0 |
| 20260507101340 | 13 | 260 | 6.4 | 16.1 | 0.00 | 0.28 | 0.13 | 70 | 1016.0 |
| 20260507094341 | 12 | 277 | 3.2 | 12.9 | 0.00 | 0.51 | 0.13 | 71 | 1016.1 |
| 20260507093340 | 12 | 270 | 4.8 | 9.7 | 0.00 | 0.56 | 0.13 | 73 | 1016.0 |
| 20260507092340 | 11 | 282 | 6.4 | 12.9 | 0.00 | 0.74 | 0.13 | 74 | 1016.1 |
| 20260507091342 | 11 | 247 | 3.2 | 12.9 | 0.00 | 0.74 | 0.13 | 75 | 1016.1 |
| 20260507090340 | 11 | 271 | 4.8 | 12.9 | 0.00 | 0.74 | 0.13 | 74 | 1016.2 |
| 20260507085340 | 10 | 313 | 6.4 | 12.9 | 0.00 | 0.74 | 0.13 | 76 | 1016.1 |
| 20260507083334 | 10 | 303 | 6.4 | 12.9 | 0.00 | 0.79 | 0.13 | 78 | 1016.0 |
| 20260507082334 | 10 | 255 | 8.0 | 12.9 | 0.00 | 0.79 | 0.13 | 78 | 1016.1 |
| 20260507081343 | 10 | 275 | 6.4 | 11.3 | 0.00 | 0.79 | 0.13 | 79 | 1016.1 |
| 20260507080332 | 10 | 288 | 8.0 | 12.9 | 0.00 | 0.81 | 0.13 | 79 | 1016.1 |
| 20260507075334 | 10 | 280 | 6.4 | 12.9 | 0.00 | 0.81 | 0.13 | 80 | 1016.1 |
| 20260507074333 | 9 | 273 | 9.7 | 14.5 | 0.00 | 0.81 | 0.13 | 79 | 1016.0 |
| 20260507073333 | 9 | 279 | 4.8 | 12.9 | 0.00 | 0.81 | 0.13 | 80 | 1016.0 |
| 20260507072335 | 9 | 169 | 4.8 | 8.0 | 0.00 | 0.81 | 0.13 | 81 | 1015.8 |
| 20260507071327 | 8 | 167 | 4.8 | 9.7 | 0.00 | 0.81 | 0.13 | 81 | 1015.8 |
| 20260507070327 | 8 | 169 | 1.6 | 6.4 | 0.00 | 0.81 | 0.13 | 83 | 1015.7 |
| 20260507065327 | 8 | 169 | 0.0 | 1.6 | 0.00 | 0.81 | 0.13 | 84 | 1015.7 |
| 20260507064327 | 8 | 169 | 0.0 | 4.8 | 0.00 | 0.81 | 0.13 | 84 | 1015.6 |
| 20260507063327 | 8 | 169 | 0.0 | 3.2 | 0.00 | 0.81 | 0.13 | 84 | 1015.6 |
| 20260507062328 | 8 | 200 | 0.0 | 1.6 | 0.00 | 0.81 | 0.13 | 84 | 1015.6 |
| 20260507061326 | 8 | 204 | 0.0 | 0.0 | 0.00 | 0.81 | 0.13 | 84 | 1015.4 |
| 20260507060324 | 7 | 205 | 0.0 | 1.6 | 0.00 | 0.81 | 0.13 | 85 | 1015.4 |
| 20260507054324 | 7 | 206 | 0.0 | 0.0 | 0.00 | 0.81 | 0.13 | 84 | 1015.3 |
| 20260507053320 | 7 | 206 | 0.0 | 0.0 | 0.00 | 0.81 | 0.13 | 84 | 1015.2 |
| 20260507052322 | 7 | 206 | 0.0 | 0.0 | 0.00 | 0.81 | 0.13 | 84 | 1015.0 |
| 20260507051322 | 7 | 206 | 0.0 | 0.0 | 0.00 | 0.81 | 0.13 | 84 | 1014.9 |
| 20260507050318 | 7 | 206 | 0.0 | 3.2 | 0.00 | 0.81 | 0.13 | 84 | 1014.9 |
| 20260507045320 | 7 | 206 | 1.6 | 3.2 | 0.00 | 0.81 | 0.13 | 84 | 1014.7 |
| 20260507044319 | 7 | 206 | 1.6 | 3.2 | 0.00 | 0.81 | 0.13 | 84 | 1014.7 |
| 20260507043320 | 6 | 206 | 0.0 | 1.6 | 0.00 | 0.81 | 0.13 | 84 | 1014.6 |
| 20260507042320 | 6 | 206 | 0.0 | 1.6 | 0.00 | 0.81 | 0.13 | 84 | 1014.5 |
| 20260507040316 | 7 | 159 | 0.0 | 0.0 | 0.00 | 0.81 | 0.13 | 84 | 1014.4 |
| 20260507035317 | 6 | 159 | 0.0 | 0.0 | 0.00 | 0.81 | 0.13 | 84 | 1014.4 |
| 20260507034317 | 6 | 160 | 0.0 | 1.6 | 0.00 | 0.81 | 0.13 | 84 | 1014.4 |
| 20260507033318 | 7 | 216 | 0.0 | 0.0 | 0.00 | 0.81 | 0.13 | 84 | 1014.2 |
| 20260507032317 | 7 | 216 | 0.0 | 3.2 | 0.00 | 0.81 | 0.13 | 83 | 1014.2 |
| 20260507031318 | 7 | 216 | 1.6 | 3.2 | 0.00 | 0.81 | 0.13 | 84 | 1014.2 |
| 20260507024316 | 7 | 216 | 0.0 | 0.0 | 0.00 | 0.81 | 0.13 | 84 | 1014.0 |
| 20260507023316 | 7 | 216 | 0.0 | 0.0 | 0.00 | 0.81 | 0.13 | 83 | 1014.1 |
| 20260507022315 | 7 | 216 | 1.6 | 4.8 | 0.00 | 0.81 | 0.13 | 83 | 1014.1 |
| 20260507021314 | 7 | 216 | 1.6 | 4.8 | 0.00 | 0.81 | 0.13 | 83 | 1013.9 |
| 20260507020316 | 7 | 217 | 0.0 | 3.2 | 0.00 | 0.81 | 0.13 | 83 | 1013.9 |
| 20260507015315 | 7 | 217 | 0.0 | 0.0 | 0.00 | 0.81 | 0.13 | 83 | 1013.9 |
| 20260507014310 | 7 | 217 | 0.0 | 3.2 | 0.00 | 0.81 | 0.13 | 83 | 1013.9 |
| 20260507013309 | 7 | 217 | 0.0 | 3.2 | 0.03 | 0.81 | 0.13 | 83 | 1013.9 |
| 20260507012308 | 7 | 217 | 0.0 | 3.2 | 0.03 | 0.81 | 0.13 | 83 | 1013.9 |
| 20260507011309 | 7 | 217 | 1.6 | 3.2 | 0.03 | 0.81 | 0.13 | 82 | 1013.8 |
| 20260507010309 | 7 | 217 | 1.6 | 3.2 | 0.05 | 0.81 | 0.13 | 82 | 1013.8 |
| 20260507005310 | 7 | 217 | 1.6 | 4.8 | 0.05 | 0.81 | 0.13 | 82 | 1013.8 |
| 20260507004310 | 7 | 217 | 3.2 | 6.4 | 0.05 | 0.81 | 0.13 | 82 | 1013.8 |
| 20260507003306 | 7 | 220 | 3.2 | 6.4 | 0.05 | 0.79 | 0.10 | 82 | 1013.9 |
| 20260507002306 | 7 | 221 | 3.2 | 8.0 | 0.05 | 0.79 | 0.10 | 82 | 1013.9 |
| 20260507000259 | 7 | 163 | 1.6 | 8.0 | 0.05 | 0.79 | 0.08 | 82 | 1013.8 |
| 20260506235258 | 7 | 163 | 1.6 | 6.4 | 0.05 | 0.79 | 0.08 | 82 | 1013.7 |
| 20260506234259 | 7 | 163 | 3.2 | 8.0 | 0.08 | 0.79 | 0.08 | 82 | 1013.7 |
| 20260506233300 | 7 | 163 | 3.2 | 6.4 | 0.05 | 0.76 | 0.05 | 82 | 1013.9 |
| 20260506232258 | 7 | 162 | 0.0 | 6.4 | 0.05 | 0.74 | 0.05 | 81 | 1013.9 |
| 20260506231314 | 7 | 162 | 3.2 | 8.0 | 0.05 | 0.74 | 0.05 | 81 | 1013.9 |
| 20260506230258 | 7 | 161 | 4.8 | 9.7 | 0.03 | 0.71 | 0.03 | 81 | 1013.8 |
| 20260506225259 | 7 | 219 | 3.2 | 8.0 | 0.03 | 0.71 | 0.03 | 80 | 1013.9 |
| 20260506224253 | 7 | 174 | 3.2 | 11.3 | 0.00 | 0.71 | 0.00 | 80 | 1013.8 |
| 20260506223252 | 7 | 212 | 3.2 | 8.0 | 0.00 | 0.71 | 0.00 | 80 | 1013.9 |
| 20260506222252 | 7 | 230 | 3.2 | 8.0 | 0.00 | 0.71 | 0.00 | 80 | 1013.7 |
| 20260506220254 | 7 | 199 | 3.2 | 6.4 | 0.00 | 0.71 | 0.00 | 80 | 1013.6 |
| 20260506215251 | 7 | 183 | 3.2 | 6.4 | 0.00 | 0.71 | 0.71 | 80 | 1013.6 |
| 20260506214251 | 7 | 240 | 1.6 | 3.2 | 0.00 | 0.71 | 0.71 | 79 | 1013.5 |
| 20260506213251 | 7 | 248 | 4.8 | 8.0 | 0.00 | 0.71 | 0.71 | 79 | 1013.5 |
| 20260506212252 | 7 | 239 | 1.6 | 6.4 | 0.00 | 0.71 | 0.71 | 79 | 1013.4 |
| 20260506210243 | 7 | 214 | 0.0 | 0.0 | 0.00 | 0.71 | 0.71 | 78 | 1013.2 |
| 20260506205245 | 7 | 214 | 0.0 | 0.0 | 0.00 | 0.71 | 0.71 | 78 | 1013.1 |
| 20260506204245 | 7 | 214 | 0.0 | 0.0 | 0.00 | 0.71 | 0.71 | 78 | 1013.0 |